EWG9HX EDDF-LFMN

Flight info

Callsign EWG9HX
Flight time 1h 38m
Altitude 31000
Route ANEKI2L/18 ANEKI Y163 NATOR/N0434F390 DCT TRA DCT RIPUS DCT GERSA DCT SOSON DCT ODINA DCT ENOBA/N0336F190 Z185 BORDI BORDI8R
Aircraft A20N/M-SDE2E3FGHIRWXY/LB1

Departure

Time 2026-04-18 10:05
Airport Frankfurt Main Airport (EDDF)

Arrival

Time 2026-04-18 11:44
Airport Nice-Côte d'Azur Airport (LFMN)
Time Latitude Longitude Altitude Speed Heading
2026-04-18 09:20 50.04750 8.57130 356 ft 0 kts 120°
2026-04-18 09:48 50.04754 8.57119 345 ft 3 kts 118°
2026-04-18 09:48 50.04762 8.57091 356 ft 3 kts 110°
2026-04-18 09:49 50.04769 8.57063 354 ft 3 kts 116°
2026-04-18 09:49 50.04780 8.57038 351 ft 3 kts 154°
2026-04-18 09:49 50.04793 8.57034 354 ft 2 kts 203°
2026-04-18 09:49 50.04792 8.57033 354 ft 2 kts 204°
2026-04-18 09:50 50.04780 8.57025 348 ft 1 kts 204°
2026-04-18 09:50 50.04779 8.57024 354 ft 1 kts 204°
2026-04-18 09:54 50.04777 8.57022 345 ft 2 kts 204°
2026-04-18 09:55 50.04753 8.57006 345 ft 6 kts 204°
2026-04-18 09:55 50.04705 8.56972 347 ft 9 kts 204°
2026-04-18 09:55 50.04635 8.56923 350 ft 13 kts 201°
2026-04-18 09:55 50.04539 8.56885 345 ft 16 kts 192°
2026-04-18 09:56 50.04443 8.56801 353 ft 18 kts 249°
2026-04-18 09:56 50.04400 8.56609 351 ft 20 kts 249°
2026-04-18 09:56 50.04348 8.56394 349 ft 22 kts 250°
2026-04-18 09:56 50.04330 8.56315 347 ft 0 kts 250°
2026-04-18 09:57 50.04328 8.56308 349 ft 2 kts 250°
2026-04-18 09:57 50.04318 8.56267 350 ft 6 kts 250°
2026-04-18 09:57 50.04299 8.56189 350 ft 9 kts 249°
2026-04-18 09:57 50.04272 8.56078 345 ft 13 kts 250°
2026-04-18 09:58 50.04240 8.55937 352 ft 15 kts 250°
2026-04-18 09:58 50.04200 8.55768 345 ft 18 kts 250°
2026-04-18 09:58 50.04152 8.55576 349 ft 20 kts 249°
2026-04-18 09:58 50.04101 8.55360 348 ft 22 kts 249°
2026-04-18 09:59 50.04044 8.55125 348 ft 24 kts 249°
2026-04-18 09:59 50.03985 8.54872 346 ft 26 kts 249°
2026-04-18 09:59 50.03918 8.54604 349 ft 27 kts 248°
2026-04-18 10:00 50.03796 8.54212 355 ft 13 kts 250°
2026-04-18 10:00 50.03762 8.54065 352 ft 16 kts 250°
2026-04-18 10:00 50.03720 8.53889 354 ft 19 kts 249°
2026-04-18 10:00 50.03672 8.53690 352 ft 21 kts 250°
2026-04-18 10:01 50.03617 8.53470 350 ft 23 kts 250°
2026-04-18 10:01 50.03560 8.53229 347 ft 25 kts 250°
2026-04-18 10:01 50.03498 8.52974 349 ft 19 kts 249°
2026-04-18 10:01 50.03455 8.52807 347 ft 10 kts 248°
2026-04-18 10:02 50.03445 8.52769 350 ft 0 kts 248°
2026-04-18 10:02 50.03439 8.52744 353 ft 4 kts 246°
2026-04-18 10:02 50.03422 8.52682 350 ft 8 kts 250°
2026-04-18 10:03 50.03383 8.52602 351 ft 11 kts 208°
2026-04-18 10:03 50.03347 8.52592 345 ft 0 kts 179°
2026-04-18 10:05 50.03322 8.52593 349 ft 21 kts 179°
2026-04-18 10:05 50.02850 8.52598 345 ft 111 kts 180°
2026-04-18 10:05 50.01832 8.52607 409 ft 171 kts 179°
2026-04-18 10:05 50.00622 8.52630 1176 ft 179 kts 179°
2026-04-18 10:06 49.99329 8.52700 2085 ft 191 kts 178°
2026-04-18 10:06 49.97982 8.52783 2967 ft 197 kts 179°
2026-04-18 10:06 49.96592 8.52895 3766 ft 205 kts 178°
2026-04-18 10:06 49.95097 8.53070 4361 ft 227 kts 176°
2026-04-18 10:07 49.93460 8.53329 4986 ft 241 kts 176°
2026-04-18 10:07 49.91775 8.53658 5591 ft 250 kts 174°
2026-04-18 10:07 49.90036 8.54034 6231 ft 254 kts 173°
2026-04-18 10:07 49.88340 8.54204 6999 ft 239 kts 183°
2026-04-18 10:08 49.86673 8.54063 7648 ft 242 kts 185°
2026-04-18 10:08 49.84986 8.53928 8660 ft 242 kts 183°
2026-04-18 10:08 49.83288 8.53888 9568 ft 247 kts 181°
2026-04-18 10:08 49.81549 8.53932 10408 ft 253 kts 180°
2026-04-18 10:09 49.79772 8.54029 11223 ft 258 kts 180°
2026-04-18 10:09 49.78219 8.54117 11915 ft 261 kts 183°
2026-04-18 10:09 49.76381 8.53923 12618 ft 272 kts 188°
2026-04-18 10:09 49.74417 8.53652 12954 ft 296 kts 188°
2026-04-18 10:10 49.72282 8.53361 13240 ft 320 kts 188°
2026-04-18 10:10 49.69977 8.53052 13492 ft 344 kts 188°
2026-04-18 10:10 49.67530 8.52730 13995 ft 357 kts 188°
2026-04-18 10:10 49.65045 8.52410 14737 ft 361 kts 188°
2026-04-18 10:11 49.62553 8.52088 15459 ft 365 kts 188°
2026-04-18 10:11 49.60005 8.51756 16204 ft 369 kts 188°
2026-04-18 10:11 49.57435 8.51419 16934 ft 373 kts 188°
2026-04-18 10:11 49.54834 8.51077 17651 ft 377 kts 188°
2026-04-18 10:12 49.52194 8.50730 18361 ft 381 kts 188°
2026-04-18 10:12 49.49538 8.50381 19002 ft 385 kts 188°
2026-04-18 10:12 49.46866 8.50030 19658 ft 387 kts 188°
2026-04-18 10:12 49.44166 8.49676 20282 ft 390 kts 188°
2026-04-18 10:13 49.41451 8.49321 20864 ft 394 kts 188°
2026-04-18 10:13 49.39635 8.49084 21270 ft 396 kts 188°
2026-04-18 10:13 49.36879 8.48724 21908 ft 399 kts 188°
2026-04-18 10:13 49.33191 8.48243 22716 ft 403 kts 188°
2026-04-18 10:14 49.30385 8.47878 23317 ft 406 kts 188°
2026-04-18 10:14 49.27552 8.47510 23891 ft 410 kts 187°
2026-04-18 10:14 49.25636 8.47260 24223 ft 411 kts 188°
2026-04-18 10:14 49.22771 8.46887 24727 ft 414 kts 188°
2026-04-18 10:15 49.19887 8.46511 25168 ft 418 kts 188°
2026-04-18 10:15 49.16972 8.46132 25621 ft 421 kts 188°
2026-04-18 10:15 49.14040 8.45752 26099 ft 424 kts 188°
2026-04-18 10:15 49.11099 8.45371 26550 ft 427 kts 188°
2026-04-18 10:16 49.08163 8.44991 26992 ft 429 kts 188°
2026-04-18 10:16 49.05205 8.44375 27424 ft 429 kts 195°
2026-04-18 10:16 49.02287 8.43366 27843 ft 431 kts 197°
2026-04-18 10:16 48.99359 8.42332 28246 ft 433 kts 197°
2026-04-18 10:17 48.96408 8.41295 28591 ft 437 kts 197°
2026-04-18 10:17 48.93431 8.40256 29004 ft 439 kts 197°
2026-04-18 10:17 48.90433 8.39214 29397 ft 442 kts 197°
2026-04-18 10:17 48.87424 8.38170 29762 ft 444 kts 197°
2026-04-18 10:18 48.84401 8.37123 30133 ft 447 kts 197°
2026-04-18 10:18 48.81362 8.36071 30470 ft 449 kts 197°
2026-04-18 10:18 48.78311 8.35017 30813 ft 451 kts 197°
2026-04-18 10:18 48.75247 8.33922 31093 ft 453 kts 197°
2026-04-18 10:19 48.72172 8.32791 31178 ft 453 kts 197°
2026-04-18 10:19 48.66050 8.30537 31181 ft 452 kts 197°
2026-04-18 10:20 48.59971 8.28314 31184 ft 453 kts 197°
2026-04-18 10:20 48.53838 8.26087 31178 ft 453 kts 197°
2026-04-18 10:21 48.47545 8.25044 31180 ft 460 kts 182°
2026-04-18 10:21 48.41159 8.26249 31179 ft 465 kts 174°
2026-04-18 10:22 48.34780 8.27829 31168 ft 465 kts 174°
2026-04-18 10:22 48.28402 8.29385 31170 ft 463 kts 174°
2026-04-18 10:23 48.22030 8.30921 31170 ft 464 kts 174°
2026-04-18 10:23 48.15684 8.32444 31174 ft 465 kts 174°
2026-04-18 10:24 48.09250 8.34003 31173 ft 465 kts 174°
2026-04-18 10:24 48.02895 8.35545 31180 ft 466 kts 174°
2026-04-18 10:25 47.96479 8.37095 31192 ft 466 kts 174°
2026-04-18 10:25 47.90069 8.38638 31188 ft 466 kts 174°
2026-04-18 10:26 47.83658 8.40179 31199 ft 466 kts 174°
2026-04-18 10:26 47.77231 8.41719 31199 ft 467 kts 174°
2026-04-18 10:27 47.70830 8.43249 31209 ft 466 kts 174°
2026-04-18 10:27 47.64446 8.44375 31214 ft 464 kts 178°
2026-04-18 10:28 47.58027 8.45314 31216 ft 463 kts 178°
2026-04-18 10:28 47.51605 8.46258 31216 ft 463 kts 178°
2026-04-18 10:29 47.45191 8.47200 31208 ft 462 kts 178°
2026-04-18 10:29 47.38793 8.48137 31207 ft 462 kts 178°
2026-04-18 10:30 47.32386 8.49073 31203 ft 462 kts 178°
2026-04-18 10:30 47.25978 8.50007 31197 ft 463 kts 178°
2026-04-18 10:31 47.19562 8.50942 31198 ft 463 kts 178°
2026-04-18 10:31 47.13153 8.51874 31197 ft 463 kts 178°
2026-04-18 10:32 47.06726 8.52806 31183 ft 464 kts 178°
2026-04-18 10:32 47.02582 8.53405 31196 ft 464 kts 178°
2026-04-18 10:33 46.96187 8.54329 31200 ft 464 kts 178°
2026-04-18 10:33 46.89750 8.55255 31205 ft 464 kts 177°
2026-04-18 10:34 46.83326 8.56176 31208 ft 463 kts 177°
2026-04-18 10:34 46.76903 8.57096 31189 ft 463 kts 177°
2026-04-18 10:35 46.70480 8.58014 31192 ft 464 kts 177°
2026-04-18 10:35 46.64061 8.58929 31175 ft 463 kts 177°
2026-04-18 10:36 46.57630 8.59843 31187 ft 464 kts 177°
2026-04-18 10:36 46.51239 8.60751 31190 ft 465 kts 177°
2026-04-18 10:37 46.44793 8.61663 31187 ft 465 kts 177°
2026-04-18 10:37 46.38355 8.62572 31183 ft 465 kts 177°
2026-04-18 10:38 46.31914 8.63479 31169 ft 465 kts 177°
2026-04-18 10:38 46.25463 8.64385 31167 ft 466 kts 177°
2026-04-18 10:39 46.19022 8.65284 31157 ft 465 kts 177°
2026-04-18 10:39 46.12624 8.66152 31155 ft 464 kts 179°
2026-04-18 10:40 46.06222 8.65667 31148 ft 459 kts 191°
2026-04-18 10:40 45.99887 8.64338 31139 ft 460 kts 191°
2026-04-18 10:41 45.93539 8.63032 31149 ft 461 kts 191°
2026-04-18 10:41 45.87183 8.61737 31155 ft 462 kts 191°
2026-04-18 10:42 45.80812 8.60443 31154 ft 462 kts 190°
2026-04-18 10:42 45.74472 8.59158 31154 ft 463 kts 190°
2026-04-18 10:43 45.68094 8.57868 31164 ft 463 kts 190°
2026-04-18 10:43 45.61708 8.56579 31162 ft 463 kts 190°
2026-04-18 10:44 45.55309 8.55291 31164 ft 463 kts 190°
2026-04-18 10:44 45.48924 8.54009 31164 ft 463 kts 190°
2026-04-18 10:45 45.44868 8.53195 31154 ft 463 kts 190°
2026-04-18 10:45 45.39919 8.52205 31153 ft 463 kts 190°
2026-04-18 10:46 45.33542 8.50931 31152 ft 463 kts 190°
2026-04-18 10:46 45.27160 8.49659 31150 ft 463 kts 190°
2026-04-18 10:47 45.20775 8.48389 31151 ft 463 kts 190°
2026-04-18 10:47 45.14390 8.47122 31154 ft 463 kts 190°
2026-04-18 10:48 45.07997 8.45856 31156 ft 463 kts 190°
2026-04-18 10:48 45.01604 8.44593 31150 ft 464 kts 190°
2026-04-18 10:48 44.98415 8.43965 31039 ft 462 kts 190°
2026-04-18 10:49 44.95232 8.43338 30583 ft 460 kts 189°
2026-04-18 10:49 44.92062 8.42715 29952 ft 458 kts 189°
2026-04-18 10:49 44.88958 8.42105 29268 ft 455 kts 189°
2026-04-18 10:49 44.85792 8.41483 28573 ft 452 kts 189°
2026-04-18 10:50 44.82737 8.40884 27924 ft 448 kts 189°
2026-04-18 10:50 44.79646 8.40278 27277 ft 445 kts 189°
2026-04-18 10:50 44.76592 8.39681 26651 ft 442 kts 189°
2026-04-18 10:50 44.73568 8.39090 26267 ft 435 kts 189°
2026-04-18 10:51 44.70567 8.38504 26143 ft 436 kts 189°
2026-04-18 10:51 44.67569 8.37919 25859 ft 435 kts 189°
2026-04-18 10:51 44.64564 8.37333 25301 ft 435 kts 189°
2026-04-18 10:51 44.61574 8.36751 24755 ft 433 kts 189°
2026-04-18 10:52 44.58595 8.36172 24165 ft 431 kts 189°
2026-04-18 10:52 44.55629 8.35596 23581 ft 428 kts 189°
2026-04-18 10:52 44.52726 8.35033 22982 ft 424 kts 189°
2026-04-18 10:52 44.49811 8.34468 22425 ft 419 kts 189°
2026-04-18 10:53 44.46949 8.33914 22201 ft 414 kts 189°
2026-04-18 10:53 44.44071 8.33356 22151 ft 420 kts 189°
2026-04-18 10:53 44.41166 8.32794 22162 ft 420 kts 189°
2026-04-18 10:53 44.38275 8.32236 22158 ft 420 kts 189°
2026-04-18 10:54 44.35379 8.31679 22160 ft 420 kts 189°
2026-04-18 10:54 44.32515 8.30934 22158 ft 417 kts 199°
2026-04-18 10:54 44.29893 8.29253 22157 ft 414 kts 215°
2026-04-18 10:54 44.27714 8.26669 22138 ft 410 kts 231°
2026-04-18 10:55 44.26022 8.23496 22143 ft 407 kts 239°
2026-04-18 10:55 44.24499 8.20162 22141 ft 406 kts 240°
2026-04-18 10:55 44.22986 8.16829 22133 ft 407 kts 240°
2026-04-18 10:55 44.21438 8.13529 22143 ft 407 kts 239°
2026-04-18 10:56 44.19853 8.10255 22138 ft 407 kts 238°
2026-04-18 10:56 44.18250 8.07004 22126 ft 407 kts 238°
2026-04-18 10:56 44.16633 8.03755 22143 ft 407 kts 238°
2026-04-18 10:56 44.15016 8.00517 22137 ft 408 kts 237°
2026-04-18 10:57 44.13394 7.97275 22126 ft 408 kts 238°
2026-04-18 10:57 44.11772 7.94036 22131 ft 408 kts 238°
2026-04-18 10:57 44.10151 7.90801 22131 ft 407 kts 238°
2026-04-18 10:57 44.08525 7.87558 22138 ft 408 kts 238°
2026-04-18 10:58 44.06910 7.84343 21921 ft 404 kts 238°
2026-04-18 10:58 44.05327 7.81194 21474 ft 402 kts 238°
2026-04-18 10:58 44.03728 7.78017 20926 ft 399 kts 238°
2026-04-18 10:58 44.02140 7.74865 20330 ft 397 kts 238°
2026-04-18 10:59 44.00544 7.71697 19808 ft 393 kts 238°
2026-04-18 10:59 43.99002 7.68635 19243 ft 391 kts 238°
2026-04-18 10:59 43.97447 7.65552 18688 ft 388 kts 238°
2026-04-18 10:59 43.95906 7.62500 18102 ft 383 kts 237°
2026-04-18 11:00 43.94378 7.59475 17450 ft 381 kts 237°
2026-04-18 11:00 43.92858 7.56475 16918 ft 377 kts 237°
2026-04-18 11:00 43.91353 7.53503 16335 ft 376 kts 237°
2026-04-18 11:00 43.89855 7.50547 15779 ft 374 kts 237°
2026-04-18 11:01 43.88363 7.47607 15259 ft 371 kts 237°
2026-04-18 11:01 43.87351 7.45641 14876 ft 371 kts 234°
2026-04-18 11:01 43.85469 7.43210 14346 ft 373 kts 214°
2026-04-18 11:02 43.80555 7.41558 13313 ft 369 kts 173°
2026-04-18 11:02 43.78113 7.42536 12790 ft 364 kts 152°
2026-04-18 11:02 43.76065 7.44525 12266 ft 359 kts 137°
2026-04-18 11:02 43.74235 7.46858 11783 ft 355 kts 135°
2026-04-18 11:03 43.72440 7.49179 11355 ft 350 kts 136°
2026-04-18 11:03 43.70629 7.51405 11194 ft 351 kts 138°
2026-04-18 11:03 43.68857 7.53736 11155 ft 351 kts 128°
2026-04-18 11:03 43.67509 7.56526 11153 ft 348 kts 114°
2026-04-18 11:04 43.66631 7.59628 11160 ft 346 kts 107°
2026-04-18 11:04 43.65843 7.62754 10984 ft 345 kts 107°
2026-04-18 11:04 43.65047 7.65871 10623 ft 342 kts 108°
2026-04-18 11:04 43.64274 7.68876 10496 ft 329 kts 108°
2026-04-18 11:05 43.63521 7.71795 10374 ft 316 kts 108°
2026-04-18 11:05 43.62798 7.74589 10259 ft 303 kts 108°
2026-04-18 11:05 43.62103 7.77281 10017 ft 295 kts 108°
2026-04-18 11:05 43.61413 7.79952 9613 ft 294 kts 108°
2026-04-18 11:06 43.60731 7.82593 9225 ft 291 kts 108°
2026-04-18 11:06 43.60054 7.85214 8833 ft 289 kts 108°
2026-04-18 11:06 43.59379 7.87818 8452 ft 287 kts 108°
2026-04-18 11:06 43.58709 7.90402 8071 ft 285 kts 108°
2026-04-18 11:07 43.58042 7.92971 7697 ft 283 kts 108°
2026-04-18 11:07 43.57380 7.95515 7331 ft 281 kts 109°
2026-04-18 11:07 43.56720 7.98047 6965 ft 280 kts 108°
2026-04-18 11:07 43.56062 8.00568 6605 ft 278 kts 109°
2026-04-18 11:08 43.55409 8.03066 6270 ft 275 kts 109°
2026-04-18 11:08 43.54758 8.05538 6108 ft 277 kts 111°
2026-04-18 11:08 43.53693 8.07714 5969 ft 275 kts 137°
2026-04-18 11:08 43.52049 8.08999 5711 ft 274 kts 165°
2026-04-18 11:09 43.50148 8.09077 5648 ft 277 kts 193°
2026-04-18 11:09 43.48427 8.07947 5645 ft 277 kts 219°
2026-04-18 11:09 43.47001 8.06160 5648 ft 277 kts 224°
2026-04-18 11:09 43.45624 8.04309 5637 ft 276 kts 224°
2026-04-18 11:10 43.44233 8.02485 5592 ft 275 kts 223°
2026-04-18 11:10 43.42846 8.00733 5324 ft 274 kts 222°
2026-04-18 11:10 43.41430 7.98994 5180 ft 273 kts 221°
2026-04-18 11:10 43.39999 7.97264 5144 ft 275 kts 221°
2026-04-18 11:11 43.38649 7.95408 5143 ft 274 kts 236°
2026-04-18 11:11 43.37967 7.92984 5145 ft 275 kts 264°
2026-04-18 11:11 43.38152 7.90398 5149 ft 273 kts 286°
2026-04-18 11:11 43.38566 7.87848 5144 ft 274 kts 279°
2026-04-18 11:12 43.38825 7.85266 5087 ft 271 kts 278°
2026-04-18 11:12 43.39070 7.82690 4781 ft 272 kts 278°
2026-04-18 11:12 43.39319 7.80118 4658 ft 271 kts 278°
2026-04-18 11:12 43.39571 7.77542 4641 ft 272 kts 278°
2026-04-18 11:13 43.39826 7.74954 4643 ft 272 kts 278°
2026-04-18 11:13 43.40080 7.72380 4643 ft 273 kts 278°
2026-04-18 11:13 43.40332 7.69787 4642 ft 274 kts 278°
2026-04-18 11:13 43.40586 7.67202 4643 ft 272 kts 278°
2026-04-18 11:14 43.40836 7.64649 4642 ft 273 kts 278°
2026-04-18 11:14 43.41086 7.62063 4644 ft 273 kts 278°
2026-04-18 11:14 43.41335 7.59463 4644 ft 274 kts 278°
2026-04-18 11:14 43.41600 7.56875 4639 ft 273 kts 278°
2026-04-18 11:15 43.41886 7.54293 4643 ft 273 kts 278°
2026-04-18 11:15 43.42152 7.51695 4643 ft 274 kts 275°
2026-04-18 11:15 43.42298 7.49085 4643 ft 273 kts 273°
2026-04-18 11:15 43.42418 7.46492 4545 ft 271 kts 273°
2026-04-18 11:16 43.42539 7.43906 4236 ft 270 kts 273°
2026-04-18 11:16 43.42660 7.41326 4136 ft 273 kts 273°
2026-04-18 11:16 43.42784 7.38723 4124 ft 272 kts 273°
2026-04-18 11:16 43.42904 7.36158 4123 ft 273 kts 273°
2026-04-18 11:17 43.43025 7.33553 4122 ft 272 kts 273°
2026-04-18 11:17 43.43146 7.30959 4124 ft 273 kts 273°
2026-04-18 11:17 43.43269 7.28355 4129 ft 272 kts 273°
2026-04-18 11:17 43.43391 7.25755 4128 ft 273 kts 273°
2026-04-18 11:18 43.43514 7.23143 4126 ft 272 kts 273°
2026-04-18 11:18 43.43634 7.20610 4127 ft 257 kts 273°
2026-04-18 11:18 43.43745 7.18227 4128 ft 243 kts 273°
2026-04-18 11:18 43.43854 7.15888 4132 ft 247 kts 273°
2026-04-18 11:19 43.43965 7.13535 4130 ft 242 kts 273°
2026-04-18 11:19 43.44074 7.11247 4132 ft 239 kts 273°
2026-04-18 11:19 43.44184 7.08954 4133 ft 241 kts 273°
2026-04-18 11:19 43.44194 7.06684 4135 ft 240 kts 257°
2026-04-18 11:20 43.43476 7.04627 4138 ft 237 kts 230°
2026-04-18 11:20 43.42423 7.02906 4132 ft 237 kts 228°
2026-04-18 11:20 43.41350 7.01181 4136 ft 237 kts 230°
2026-04-18 11:20 43.40645 6.99158 4138 ft 238 kts 260°
2026-04-18 11:21 43.40794 6.96904 4137 ft 240 kts 292°
2026-04-18 11:21 43.41767 6.95065 4134 ft 240 kts 323°
2026-04-18 11:21 43.43167 6.93958 4129 ft 224 kts 339°
2026-04-18 11:21 43.44639 6.93735 4114 ft 211 kts 15°
2026-04-18 11:22 43.45938 6.94546 4039 ft 201 kts 32°
2026-04-18 11:22 43.47140 6.95540 3538 ft 204 kts 35°
2026-04-18 11:22 43.48166 6.96875 3130 ft 200 kts 49°
2026-04-18 11:22 43.49106 6.98255 2783 ft 196 kts 49°
2026-04-18 11:23 43.50030 6.99610 2653 ft 198 kts 49°
2026-04-18 11:23 43.50935 7.00939 2630 ft 186 kts 49°
2026-04-18 11:23 43.51833 7.02187 2420 ft 182 kts 47°
2026-04-18 11:23 43.52742 7.03407 2173 ft 183 kts 46°
2026-04-18 11:24 43.53657 7.04633 2138 ft 184 kts 46°
2026-04-18 11:24 43.54571 7.05864 2101 ft 183 kts 47°
2026-04-18 11:24 43.55467 7.07080 1885 ft 179 kts 47°
2026-04-18 11:24 43.56323 7.08245 1729 ft 167 kts 47°
2026-04-18 11:25 43.57168 7.09400 1741 ft 172 kts 47°
2026-04-18 11:25 43.58006 7.10550 1684 ft 168 kts 47°
2026-04-18 11:25 43.58840 7.11691 1539 ft 168 kts 47°
2026-04-18 11:25 43.59642 7.12788 1528 ft 159 kts 47°
2026-04-18 11:26 43.60421 7.13854 1534 ft 160 kts 47°
2026-04-18 11:26 43.61198 7.14918 1408 ft 154 kts 47°
2026-04-18 11:26 43.61943 7.15972 1101 ft 149 kts 47°
2026-04-18 11:26 43.62650 7.16928 879 ft 136 kts 45°
2026-04-18 11:27 43.63376 7.17872 710 ft 162 kts 46°
2026-04-18 11:27 43.64210 7.19062 480 ft 177 kts 48°
2026-04-18 11:27 43.65039 7.20217 462 ft 171 kts 48°
2026-04-18 11:27 43.65916 7.21478 1097 ft 199 kts 48°
2026-04-18 11:28 43.66942 7.22958 1867 ft 225 kts 47°
2026-04-18 11:28 43.67824 7.24864 2400 ft 249 kts 78°
2026-04-18 11:28 43.67690 7.27262 3250 ft 256 kts 116°
2026-04-18 11:28 43.66667 7.29262 4181 ft 261 kts 133°
2026-04-18 11:29 43.65347 7.31041 4696 ft 266 kts 139°
2026-04-18 11:29 43.63967 7.32726 4959 ft 266 kts 140°
2026-04-18 11:29 43.62560 7.34402 5095 ft 267 kts 140°
2026-04-18 11:29 43.61142 7.36081 5134 ft 268 kts 140°
2026-04-18 11:30 43.59726 7.37754 5133 ft 269 kts 140°
2026-04-18 11:30 43.58307 7.39423 5130 ft 267 kts 140°
2026-04-18 11:30 43.56930 7.41128 5123 ft 265 kts 130°
2026-04-18 11:30 43.55879 7.43241 5127 ft 269 kts 123°
2026-04-18 11:31 43.54868 7.45410 5125 ft 269 kts 123°
2026-04-18 11:31 43.53880 7.47541 5123 ft 267 kts 123°
2026-04-18 11:31 43.52875 7.49704 5122 ft 268 kts 123°
2026-04-18 11:31 43.51877 7.51862 5123 ft 267 kts 123°
2026-04-18 11:32 43.50876 7.54020 5124 ft 268 kts 123°
2026-04-18 11:32 43.49870 7.56185 5121 ft 267 kts 123°
2026-04-18 11:32 43.48865 7.58342 5126 ft 268 kts 123°
2026-04-18 11:32 43.47797 7.60454 5104 ft 270 kts 133°
2026-04-18 11:33 43.46252 7.61880 4907 ft 270 kts 160°
2026-04-18 11:33 43.44406 7.62177 4566 ft 269 kts 187°
2026-04-18 11:33 43.42643 7.61380 4265 ft 266 kts 203°
2026-04-18 11:33 43.40927 7.60349 4146 ft 270 kts 204°
2026-04-18 11:34 43.39397 7.58881 4123 ft 270 kts 228°
2026-04-18 11:34 43.38528 7.56665 4118 ft 270 kts 256°
2026-04-18 11:34 43.38502 7.54091 4124 ft 273 kts 279°
2026-04-18 11:34 43.38870 7.51530 4118 ft 273 kts 282°
2026-04-18 11:35 43.39266 7.48994 4126 ft 272 kts 282°
2026-04-18 11:35 43.39661 7.46452 4120 ft 272 kts 281°
2026-04-18 11:35 43.40047 7.43903 4123 ft 272 kts 281°
2026-04-18 11:35 43.40425 7.41351 4121 ft 272 kts 281°
2026-04-18 11:36 43.40798 7.38803 4123 ft 272 kts 281°
2026-04-18 11:36 43.41168 7.36256 4125 ft 271 kts 281°
2026-04-18 11:36 43.41538 7.33708 4122 ft 272 kts 281°
2026-04-18 11:36 43.41908 7.31152 4117 ft 272 kts 281°
2026-04-18 11:37 43.42278 7.28599 4122 ft 273 kts 281°
2026-04-18 11:37 43.42647 7.26049 4113 ft 268 kts 281°
2026-04-18 11:37 43.43000 7.23604 4113 ft 252 kts 281°
2026-04-18 11:37 43.43333 7.21303 4110 ft 237 kts 281°
2026-04-18 11:38 43.43642 7.19153 4120 ft 234 kts 280°
2026-04-18 11:38 43.43964 7.16905 4112 ft 234 kts 280°
2026-04-18 11:38 43.44305 7.14731 3929 ft 233 kts 289°
2026-04-18 11:38 43.45195 7.12874 3460 ft 238 kts 321°
2026-04-18 11:39 43.46653 7.11917 3056 ft 236 kts 351°
2026-04-18 11:39 43.48241 7.11703 2922 ft 224 kts 359°
2026-04-18 11:39 43.49760 7.11656 2833 ft 212 kts
2026-04-18 11:39 43.51195 7.11641 2649 ft 201 kts
2026-04-18 11:40 43.52613 7.11634 2169 ft 204 kts
2026-04-18 11:40 43.54028 7.11628 1822 ft 201 kts
2026-04-18 11:40 43.55436 7.11622 1718 ft 203 kts
2026-04-18 11:40 43.56854 7.11665 1718 ft 205 kts
2026-04-18 11:41 43.58203 7.12082 1711 ft 191 kts 23°
2026-04-18 11:41 43.59342 7.12866 1622 ft 178 kts 35°
2026-04-18 11:41 43.60314 7.13846 1270 ft 168 kts 42°
2026-04-18 11:41 43.61113 7.14818 1209 ft 141 kts 45°
2026-04-18 11:42 43.61782 7.15723 1038 ft 143 kts 47°
2026-04-18 11:42 43.62538 7.16782 911 ft 155 kts 46°
2026-04-18 11:42 43.63295 7.17811 653 ft 151 kts 46°
2026-04-18 11:42 43.64022 7.18803 398 ft 142 kts 46°
2026-04-18 11:43 43.64701 7.19743 178 ft 140 kts 47°
2026-04-18 11:43 43.65415 7.20726 43 ft 144 kts 46°
2026-04-18 11:43 43.66069 7.21637 20 ft 119 kts 45°
2026-04-18 11:43 43.66555 7.22310 21 ft 86 kts 45°
2026-04-18 11:44 43.66809 7.22648 21 ft 37 kts 45°
2026-04-18 11:44 43.66951 7.22756 21 ft 22 kts 328°
2026-04-18 11:44 43.67001 7.22593 22 ft 19 kts 236°
2026-04-18 11:44 43.66939 7.22502 21 ft 0 kts 227°